FW8327 Weather Reports


Display with metric or nautical units.
time (UTC)temp
F
wind
direction
speed
MPH
gust
MPH
rain 1hr
in
rain 24hr
in
rain mn
in
humidity
%
barometer
mb
20260504100125 50 164 0.0 0.0 0.00 0.00 0.00 81 1005.7
20260504081518 50 163 0.0 0.0 0.00 0.00 0.00 80 1006.3
20260504081014 50 178 0.0 0.0 0.00 0.00 0.00 80 1006.4
20260504080510 50 158 0.0 0.0 0.00 0.00 0.00 80 1006.4
20260504050317 53 154 0.0 0.0 0.00 0.00 0.00 74 1007.7
20260504045814 53 150 0.0 0.0 0.00 0.00 0.00 73 1007.7
20260504045314 53 136 0.0 0.0 0.00 0.00 0.00 73 1007.8
20260504044812 53 154 0.0 0.0 0.00 0.00 0.00 73 1007.8
20260504044309 53 157 0.0 0.0 0.00 0.00 0.00 73 1007.7
20260504043806 53 164 0.0 0.0 0.00 0.00 0.00 73 1008.0
20260504043303 53 168 0.0 0.0 0.00 0.00 0.00 73 1007.9
20260504042801 53 154 0.0 0.0 0.00 0.00 0.00 73 1007.7
20260504042257 53 168 0.0 0.0 0.00 0.00 0.00 73 1008.1
20260504041753 53 164 0.0 0.0 0.00 0.00 0.00 73 1008.2
20260504041249 53 148 0.0 0.0 0.00 0.00 0.00 73 1008.1
20260504040745 53 146 1.0 3.0 0.00 0.00 0.00 73 1008.0
20260504040243 53 160 0.0 0.0 0.00 0.00 0.00 73 1008.1
20260504035739 53 164 0.0 0.0 0.00 0.00 0.00 73 1008.2
20260504035236 53 157 0.0 0.0 0.00 0.00 0.00 73 1008.2
20260504034734 53 162 0.0 0.0 0.00 0.00 0.00 73 1008.2
20260504034231 53 139 0.0 1.0 0.00 0.00 0.00 73 1008.5
20260504033729 53 152 0.0 0.0 0.00 0.00 0.00 73 1008.3
20260504033226 53 143 0.0 0.0 0.00 0.00 0.00 73 1008.4
20260504032723 53 144 0.0 0.0 0.00 0.00 0.00 72 1008.5
20260504032220 54 146 0.0 0.0 0.00 0.00 0.00 72 1008.8
20260504031711 54 157 0.0 0.0 0.00 0.00 0.00 71 1008.7
20260504031208 54 172 0.0 0.0 0.00 0.00 0.00 71 1008.6
20260504030704 54 165 0.0 0.0 0.00 0.00 0.00 71 1008.7
20260504030202 54 156 0.0 0.0 0.00 0.00 0.00 71 1008.4
20260504025658 54 156 0.0 0.0 0.00 0.00 0.00 71 1008.7
20260504025155 54 149 0.0 0.0 0.00 0.00 0.00 71 1008.7
20260504024652 55 143 0.0 0.0 0.00 0.00 0.00 71 1008.8
20260504024148 54 145 0.0 0.0 0.00 0.00 0.00 71 1008.8
20260504023645 54 146 0.0 0.0 0.00 0.00 0.00 71 1008.8
20260504023141 54 144 0.0 0.0 0.00 0.00 0.00 71 1008.8
20260504022637 54 149 0.0 0.0 0.00 0.00 0.00 72 1008.7
20260504022133 54 157 0.0 0.0 0.00 0.00 0.00 72 1008.6
20260504021632 54 161 0.0 0.0 0.00 0.00 0.00 72 1008.7
20260504021128 54 138 0.0 0.0 0.00 0.00 0.00 72 1008.6
20260504020625 54 145 0.0 0.0 0.00 0.00 0.00 73 1008.8
20260504020121 54 166 0.0 0.0 0.00 0.00 0.00 73 1008.7
20260504015618 54 153 0.0 0.0 0.00 0.00 0.00 72 1008.7
20260504015114 54 151 0.0 0.0 0.00 0.00 0.00 71 1008.4
20260504014610 55 149 0.0 0.0 0.00 0.00 0.00 71 1008.5
20260504014107 55 152 0.0 0.0 0.00 0.00 0.00 69 1008.6
20260504013605 55 155 0.0 0.0 0.00 0.00 0.00 69 1008.6
20260504013102 56 164 0.0 0.0 0.00 0.00 0.00 68 1008.9
20260504012559 56 152 0.0 0.0 0.00 0.00 0.00 68 1008.8
20260504012057 56 150 0.0 0.0 0.00 0.00 0.00 67 1008.5
20260504011554 56 159 0.0 0.0 0.00 0.00 0.00 67 1008.7
20260504011050 56 146 0.0 0.0 0.00 0.00 0.00 67 1008.5
20260504010545 57 150 0.0 0.0 0.00 0.00 0.00 66 1008.8
20260504010042 57 159 0.0 0.0 0.00 0.00 0.00 66 1008.6
20260504005538 57 151 0.0 0.0 0.00 0.00 0.00 65 1008.8
20260504005036 57 153 0.0 0.0 0.00 0.00 0.00 65 1008.8
20260504004534 57 155 0.0 0.0 0.00 0.00 0.00 65 1008.8
20260504004030 57 159 0.0 0.0 0.00 0.00 0.00 64 1008.7
20260504003526 57 162 0.0 0.0 0.00 0.00 0.00 63 1008.9
20260504003023 57 154 0.0 0.0 0.00 0.00 0.00 63 1009.0
20260504002520 57 137 0.0 0.0 0.00 0.00 0.00 64 1009.0
20260504002018 57 195 0.0 0.0 0.00 0.00 0.00 63 1008.7
20260504001515 57 160 0.0 0.0 0.00 0.00 0.00 63 1008.8
20260504001011 57 166 0.0 0.0 0.00 0.00 0.00 63 1008.9
20260504000509 57 154 0.0 0.0 0.00 0.00 0.00 63 1009.1
20260504000006 57 126 0.0 0.0 0.00 0.00 0.00 63 1008.9
20260503235504 58 144 0.0 0.0 0.00 0.00 0.00 63 1009.0
20260503235001 58 154 0.0 0.0 0.00 0.00 0.00 61 1009.1
20260503234458 58 143 0.0 0.0 0.00 0.00 0.00 61 1009.3
20260503233956 58 183 0.0 0.0 0.00 0.00 0.00 61 1009.1
20260503233452 58 171 0.0 0.0 0.00 0.00 0.00 61 1009.1
20260503232949 58 139 0.0 0.0 0.00 0.00 0.00 62 1009.4
20260503232446 59 185 0.0 0.0 0.00 0.00 0.00 60 1009.5
20260503231944 59 159 0.0 0.0 0.00 0.00 0.00 61 1009.3
20260503231441 59 154 0.0 0.0 0.00 0.00 0.00 59 1009.5
20260503230937 59 144 0.0 0.0 0.00 0.00 0.00 59 1009.3
20260503230434 59 261 0.0 0.0 0.00 0.00 0.00 59 1009.7
20260503225932 59 161 0.0 0.0 0.00 0.00 0.00 61 1009.5
20260503225428 59 171 0.0 0.0 0.00 0.00 0.00 59 1009.7
20260503224924 59 121 0.0 0.0 0.00 0.00 0.00 60 1009.8
20260503224421 59 170 0.0 0.0 0.00 0.00 0.00 59 1009.8
20260503223919 60 184 0.0 0.0 0.00 0.00 0.00 60 1009.6
20260503223416 60 228 0.0 0.0 0.00 0.00 0.00 57 1009.6
20260503222911 61 178 0.0 0.0 0.00 0.00 0.00 57 1009.5
20260503222409 61 237 0.0 1.0 0.00 0.00 0.00 58 1009.6
20260503221907 60 163 0.0 0.0 0.00 0.00 0.00 57 1009.6
20260503221406 60 173 0.0 1.0 0.00 0.00 0.00 56 1009.7
20260503220902 60 150 0.0 0.0 0.00 0.00 0.00 59 1009.8
20260503220358 60 161 0.0 0.0 0.00 0.00 0.00 58 1009.7
20260503215855 59 169 0.0 0.0 0.00 0.00 0.00 58 1009.7
20260503215352 59 159 0.0 0.0 0.00 0.00 0.00 57 1009.6
20260503214850 59 124 0.0 0.0 0.00 0.00 0.00 58 1009.7
20260503214347 59 156 0.0 0.0 0.00 0.00 0.00 59 1009.9
20260503213844 59 177 0.0 0.0 0.00 0.00 0.00 57 1009.9
20260503213342 59 155 0.0 0.0 0.00 0.00 0.00 59 1009.8
20260503212839 60 158 0.0 0.0 0.00 0.00 0.00 58 1010.1
20260503212337 60 185 0.0 0.0 0.00 0.00 0.00 55 1010.0
20260503211834 61 214 0.0 0.0 0.00 0.00 0.00 55 1010.2
20260503211330 61 25 0.0 0.0 0.00 0.00 0.00 55 1010.3
20260503210825 60 62 1.0 2.0 0.00 0.00 0.00 56 1010.5
20260503210323 61 133 0.0 0.0 0.00 0.00 0.00 55 1010.5
20260503205818 60 182 0.0 0.0 0.00 0.00 0.00 59 1010.9
20260503205315 59 161 0.0 0.0 0.00 0.00 0.00 58 1010.7
20260503204811 59 157 0.0 0.0 0.00 0.00 0.00 59 1011.0
20260503204309 60 123 1.0 3.0 0.00 0.00 0.00 58 1010.9
20260503203805 60 134 0.0 0.0 0.00 0.00 0.00 60 1011.2
20260503203303 59 146 0.0 0.0 0.00 0.00 0.00 61 1011.0
20260503202754 59 161 0.0 0.0 0.00 0.00 0.00 59 1011.4
20260503202252 59 243 0.0 0.0 0.00 0.00 0.00 63 1011.4
20260503201750 57 236 0.0 0.0 0.00 0.00 0.00 66 1011.4
20260503201247 56 154 0.0 0.0 0.00 0.00 0.00 71 1011.5
20260503200744 55 146 0.0 0.0 0.00 0.00 0.00 74 1011.6
20260503200240 55 109 0.0 0.0 0.00 0.00 0.00 75 1011.7
20260503195737 54 114 0.0 0.0 0.00 0.00 0.00 76 1011.9
20260503195234 54 148 0.0 0.0 0.00 0.00 0.00 80 1012.3
20260503194732 53 144 0.0 0.0 0.00 0.00 0.00 78 1012.5
20260503194227 53 93 0.0 0.0 0.00 0.00 0.00 79 1012.8
20260503193723 52 110 0.0 0.0 0.00 0.00 0.00 79 1013.0
20260503193220 53 61 0.0 0.0 0.00 0.00 0.00 81 1012.7
20260503192715 52 142 0.0 0.0 0.00 0.00 0.00 82 1013.2
20260503192211 51 142 0.0 0.0 0.00 0.00 0.00 83 1013.2
20260503191708 50 143 0.0 0.0 0.00 0.00 0.00 83 1012.9
20260503191205 51 152 0.0 0.0 0.00 0.00 0.00 86 1013.4
20260503190702 51 148 0.0 0.0 0.00 0.00 0.00 86 1013.6
20260503190158 51 154 0.0 0.0 0.00 0.00 0.00 79 1014.0
20260503185655 51 166 0.0 0.0 0.00 0.00 0.00 78 1013.9
20260503185150 51 192 0.0 0.0 0.00 0.00 0.00 76 1013.9
20260503184645 51 161 0.0 0.0 0.00 0.00 0.00 77 1013.8
20260503184142 51 159 0.0 0.0 0.00 0.00 0.00 78 1014.1
20260503183638 51 173 0.0 0.0 0.00 0.00 0.00 77 1013.9
20260503183136 51 154 0.0 0.0 0.00 0.00 0.00 78 1014.2
20260503182634 51 171 0.0 0.0 0.00 0.00 0.00 77 1014.1
20260503182132 52 230 0.0 0.0 0.00 0.00 0.00 75 1014.3
20260503181629 52 208 0.0 2.0 0.00 0.00 0.00 72 1014.4
20260503181126 53 285 1.0 2.0 0.00 0.00 0.00 68 1014.5
20260503180623 55 189 0.0 1.0 0.00 0.00 0.00 62 1014.1
20260503180121 57 188 0.0 1.0 0.00 0.00 0.00 56 1014.2
20260503175617 58 96 0.0 0.0 0.00 0.00 0.00 55 1014.1
20260503175114 58 220 0.0 0.0 0.00 0.00 0.00 56 1013.9
20260503174611 58 129 0.0 1.0 0.00 0.00 0.00 54 1014.1
20260503174108 59 239 0.0 1.0 0.00 0.00 0.00 55 1014.4
20260503173603 59 71 0.0 0.0 0.00 0.00 0.00 56 1014.3
20260503173100 59 144 0.0 0.0 0.00 0.00 0.00 55 1014.5
20260503172557 59 267 1.0 2.0 0.00 0.00 0.00 55 1014.6
20260503172054 59 180 0.0 0.0 0.00 0.00 0.00 55 1014.6
20260503171550 60 170 1.0 3.0 0.00 0.00 0.00 53 1014.5
20260503171048 60 16 1.0 2.0 0.00 0.00 0.00 53 1014.7
20260503170544 60 206 0.0 0.0 0.00 0.00 0.00 53 1014.8
20260503150930 56 192 0.0 1.0 0.00 0.00 0.00 55 1016.0
20260503150426 57 154 0.0 0.0 0.00 0.00 0.00 55 1015.9
20260503131314 50 166 0.0 0.0 0.00 0.00 0.00 61 1016.3
20260503130812 49 143 0.0 0.0 0.00 0.00 0.00 62 1016.2
20260503130309 49 174 1.0 2.0 0.00 0.00 0.00 62 1016.1
20260503110703 41 171 0.0 0.0 0.00 0.00 0.00 72 1015.7
20260503110200 41 151 0.0 0.0 0.00 0.00 0.00 73 1015.6